[[{"header":{"parameterUnit":"m.s-1","parameterCategory":1,"la1":30.2991,"la2":30.254,"lo1":-89.0895,"lo2":-89.0444,"dy":0.0017,"dx":0.0017,"nx":28,"ny":28,"refTime":"2025-05-18T03:00:00:Z","depth":0,"parameterNumber":2,"parameterNumberName":"U-component_of_WINDS"},"data":[0,0,0,0,0,0,0,0,0,0,0,0,0,0,0,0,0,0,0,0,0,0,0,0,0,0,0,0,0,0,0,0,0,0,0,0,0,0,0,0,0,0,0,0,0,0,0,0,0,0,0,0,0,0,0,0,0,0,-0.8572,-0.8572,0,-0.8535,-0.8534,-0.8534,-0.8524,-0.8524,-0.8524,-0.8525,-0.8483,-0.8482,-0.848,0,0,0,0,0,0,0,0,0,0,0,0,0,-0.8634,-0.8633,-0.8572,-0.8572,-0.8572,-0.8535,-0.8534,-0.8534,-0.8524,-0.8524,-0.8524,-0.8525,-0.8483,-0.8482,-0.848,0,0,0,0,0,0,0,0,0,0,0,0,0,-0.8603,-0.8633,-0.8573,-0.8562,-0.8561,-0.8535,-0.8534,-0.8533,-0.8524,-0.8524,-0.8524,-0.8525,-0.8484,-0.8482,-0.848,-0.846,0,0,-0.8474,-0.8473,0,0,0,0,0,0,0,0,-0.8605,-0.8601,-0.8564,-0.8563,-0.8561,-0.8534,-0.8541,-0.8509,-0.8524,-0.8538,-0.8525,-0.8525,-0.85,-0.8496,-0.8488,-0.8458,-0.8457,-0.8474,-0.8473,-0.8472,-0.8471,0,0,0,0,0,0,0,-0.8607,-0.8602,-0.8557,-0.8564,-0.8562,-0.8559,-0.8555,-0.8534,-0.8517,-0.8537,-0.8536,-0.8532,-0.8499,-0.849,-0.8487,-0.8456,-0.8474,-0.8472,-0.8471,-0.847,-0.8408,-0.8408,0,0,0,0,0,0,-0.8611,-0.8604,-0.8559,-0.8556,-0.8584,-0.8557,-0.8553,-0.8543,-0.8517,-0.8514,-0.8531,-0.8531,-0.8494,-0.849,-0.8486,-0.8461,-0.8472,-0.847,-0.8469,-0.8408,-0.8408,-0.8407,0,0,0,0,0,0,-0.8612,-0.8607,-0.856,-0.858,-0.8574,-0.8556,-0.8545,-0.8542,-0.8533,-0.8513,-0.851,-0.8526,-0.8494,-0.8489,-0.8467,-0.8459,-0.8469,-0.8467,-0.8409,-0.8408,-0.8408,-0.8411,0,0,0,0,0,0,-0.8614,-0.8608,-0.8601,-0.858,-0.8573,-0.8543,-0.8544,-0.8541,-0.853,-0.853,-0.8507,-0.8504,-0.8494,-0.847,-0.8465,-0.8457,-0.8466,-0.841,-0.8409,-0.8408,-0.8412,-0.8411,-0.841,0,0,0,0,0,-0.8616,-0.8603,-0.86,-0.8595,-0.8564,-0.8542,-0.8538,-0.8527,-0.8529,-0.8522,-0.8509,-0.8505,-0.8461,-0.8468,-0.8462,-0.8453,-0.841,-0.8409,-0.8408,-0.8412,-0.8411,-0.841,0,0,0,0,0,0,-0.8622,-0.86,-0.8597,-0.8576,-0.8561,-0.8541,-0.8531,-0.8526,-0.851,-0.851,-0.8496,-0.8491,-0.8471,-0.846,-0.8468,-0.8433,-0.8435,-0.8433,-0.8441,-0.8439,-0.8439,-0.8441,-0.8464,0,0,0,0,0,-0.8621,-0.8606,-0.8587,-0.857,-0.8563,-0.8548,-0.8539,-0.8532,-0.8515,-0.8509,-0.8494,-0.8478,-0.8461,-0.845,-0.8432,-0.841,-0.8405,-0.8401,-0.8401,-0.84,-0.8398,-0.8385,-0.8383,-0.8404,-0.8404,-0.8404,0,0,-0.8618,-0.8604,-0.8595,-0.8571,-0.8559,-0.8543,-0.8543,-0.8526,-0.8514,-0.8506,-0.8485,-0.8474,-0.8455,-0.8433,-0.8422,-0.8423,-0.8391,-0.8399,-0.8398,-0.8397,-0.8384,-0.8382,-0.838,-0.8403,-0.8404,-0.8404,0,0,-0.8605,-0.8593,-0.8578,-0.8566,-0.8548,-0.8538,-0.8534,-0.8514,-0.8507,-0.8486,-0.8479,-0.8464,-0.8435,-0.8422,-0.8411,-0.8393,-0.8388,-0.8388,-0.8383,-0.8371,-0.8369,-0.8368,-0.8361,-0.8359,-0.8386,-0.8386,-0.8386,0,-0.8603,-0.858,-0.857,-0.8554,-0.8544,-0.8536,-0.852,-0.8509,-0.8486,-0.8478,-0.848,-0.8443,-0.8429,-0.8404,-0.84,-0.8391,-0.8386,-0.839,-0.837,-0.8369,-0.8367,-0.836,-0.8358,-0.8386,-0.8386,-0.8386,-0.8386,0,-0.8579,-0.8563,-0.8553,-0.8532,-0.852,-0.8504,-0.8491,-0.848,-0.8474,-0.8464,-0.8443,-0.8426,-0.8406,-0.84,-0.8393,-0.8373,-0.8374,-0.8373,-0.8376,-0.8365,-0.8359,-0.8356,-0.8386,-0.8386,-0.8386,-0.8386,0,0,-0.8567,-0.8542,-0.8538,-0.8528,-0.8508,-0.8495,-0.8479,-0.846,-0.845,-0.8435,-0.842,-0.8396,-0.8395,-0.8383,-0.8375,-0.8364,-0.8351,-0.8364,-0.8364,-0.8362,-0.8327,-0.8327,-0.8325,-0.8348,-0.8347,-0.8347,-0.8328,0,-0.8551,-0.8523,-0.8513,-0.8489,-0.8474,-0.8467,-0.8453,-0.8438,-0.8428,-0.8414,-0.8402,-0.8385,-0.8386,-0.8378,-0.8367,-0.8355,-0.8343,-0.8356,-0.8333,-0.8332,-0.8337,-0.8321,-0.8322,-0.8305,-0.8326,-0.8325,-0.8325,0,-0.8529,-0.8514,-0.8488,-0.847,-0.8463,-0.845,-0.8432,-0.8418,-0.8402,-0.8395,-0.8382,-0.8376,-0.8357,-0.8361,-0.8336,-0.8345,-0.8335,-0.8327,-0.8326,-0.8323,-0.8328,-0.8317,-0.8299,-0.8297,-0.8321,-0.8321,-0.8322,0,-0.8522,-0.8495,-0.8477,-0.8469,-0.8447,-0.8438,-0.8429,-0.8412,-0.8402,-0.8385,-0.8378,-0.836,-0.835,-0.8335,-0.8323,-0.8328,-0.8299,-0.8302,-0.8292,-0.8292,-0.8285,-0.8286,-0.8265,-0.828,-0.828,-0.828,-0.8281,0,-0.8505,-0.8489,-0.8474,-0.8462,-0.8444,-0.8434,-0.8416,-0.8406,-0.8392,-0.8377,-0.837,-0.8357,-0.8342,-0.8327,-0.8318,-0.8297,-0.8293,-0.8287,-0.8284,-0.8287,-0.8288,-0.828,-0.828,-0.828,-0.828,-0.828,-0.828,0,-0.8494,-0.8483,-0.8462,-0.8444,-0.8439,-0.8426,-0.841,-0.8398,-0.8389,-0.8371,-0.8366,-0.835,-0.8331,-0.8319,-0.8294,-0.8288,-0.8266,-0.8264,-0.8272,-0.8271,-0.8261,-0.8262,-0.8234,-0.823,-0.8249,-0.8249,-0.8248,0,-0.8483,-0.8471,-0.8452,-0.8442,-0.8433,-0.8418,-0.8407,-0.8396,-0.8385,-0.8365,-0.8355,-0.8337,-0.8321,-0.8291,-0.8277,-0.8259,-0.8256,-0.8247,-0.8253,-0.8256,-0.8255,-0.8255,-0.8254,-0.8246,-0.8246,-0.8246,-0.8246,0,-0.8465,-0.8461,-0.8446,-0.8429,-0.8417,-0.8403,-0.8389,-0.8381,-0.8367,-0.8355,-0.8337,-0.8324,-0.83,-0.8281,-0.8262,-0.8251,-0.8246,-0.8244,-0.8241,-0.8243,-0.8248,-0.8245,-0.8269,-0.8245,-0.8245,-0.8245,-0.8245,-0.8245,-0.8454,-0.8443,-0.8428,-0.8411,-0.84,-0.8387,-0.8375,-0.8364,-0.8349,-0.8329,-0.8323,-0.8304,-0.8287,-0.826,-0.8249,-0.8233,-0.8234,-0.8229,-0.8228,-0.8226,-0.8226,-0.8251,-0.823,-0.823,-0.823,-0.823,-0.823,0,-0.8435,-0.8425,-0.841,-0.8391,-0.8378,-0.8376,-0.836,-0.8349,-0.8333,-0.8318,-0.8303,-0.8281,-0.8263,-0.8248,-0.8229,-0.8219,-0.8216,-0.8214,-0.8215,-0.8212,-0.8227,-0.8232,-0.8217,-0.8217,-0.8217,-0.8217,-0.8217,-0.8217,-0.8424,-0.8405,-0.8399,-0.8374,-0.8364,-0.8345,-0.8337,-0.8324,-0.8313,-0.8289,-0.8275,-0.8265,-0.825,-0.823,-0.8213,-0.8209,-0.8202,-0.82,-0.8196,-0.821,-0.8211,-0.8212,-0.8217,-0.8199,-0.8199,-0.8182,-0.8182,-0.8182]},{"header":{"parameterUnit":"m.s-1","parameterCategory":1,"la1":30.2991,"la2":30.254,"lo1":-89.0895,"lo2":-89.0444,"dy":0.0017,"dx":0.0017,"nx":28,"ny":28,"refTime":"2025-05-18T03:00:00:Z","depth":0,"parameterNumber":3,"parameterNumberName":"V-component_of_WINDS"},"data":[0,0,0,0,0,0,0,0,0,0,0,0,0,0,0,0,0,0,0,0,0,0,0,0,0,0,0,0,0,0,0,0,0,0,0,0,0,0,0,0,0,0,0,0,0,0,0,0,0,0,0,0,0,0,0,0,0,0,4.0205,4.0205,0,4.027,4.0271,4.0271,4.0234,4.0232,4.023,4.0229,4.0292,4.0295,4.0299,0,0,0,0,0,0,0,0,0,0,0,0,0,4.0044,4.0047,4.0205,4.0205,4.0206,4.027,4.0271,4.0272,4.0234,4.0232,4.023,4.0228,4.0291,4.0295,4.0299,0,0,0,0,0,0,0,0,0,0,0,0,0,4.0112,4.0048,4.0204,4.0195,4.0195,4.027,4.0271,4.0272,4.0235,4.0232,4.0229,4.0227,4.029,4.0295,4.03,4.0386,0,0,4.0315,4.0317,0,0,0,0,0,0,0,0,4.0108,4.0118,4.0196,4.0196,4.0196,4.0241,4.0237,4.031,4.0236,4.022,4.0229,4.0225,4.0277,4.0283,4.0301,4.0389,4.0391,4.0316,4.0319,4.0321,4.0322,0,0,0,0,0,0,0,4.0103,4.0115,4.023,4.0197,4.0197,4.0187,4.0194,4.0251,4.0263,4.0221,4.0218,4.0227,4.0277,4.0296,4.0302,4.0392,4.0315,4.032,4.0323,4.0325,4.0553,4.0556,0,0,0,0,0,0,4.01,4.0111,4.0228,4.0232,4.0145,4.0192,4.0199,4.0229,4.0262,4.0265,4.0229,4.0225,4.0289,4.0297,4.0304,4.0407,4.0321,4.0326,4.0328,4.055,4.0554,4.0557,0,0,0,0,0,0,4.0097,4.0111,4.0226,4.0171,4.0185,4.0198,4.0232,4.0232,4.0252,4.0268,4.027,4.0247,4.0287,4.0297,4.0366,4.0409,4.0328,4.0332,4.0547,4.0551,4.0555,4.0614,0,0,0,0,0,0,4.0092,4.011,4.0143,4.0172,4.0188,4.0287,4.0234,4.0235,4.0261,4.0256,4.0286,4.0288,4.0286,4.0359,4.0371,4.0414,4.0336,4.0543,4.0549,4.0554,4.0608,4.062,4.063,0,0,0,0,0,4.0087,4.0156,4.0145,4.016,4.0231,4.029,4.0299,4.0296,4.0265,4.0298,4.0309,4.0287,4.0402,4.0366,4.038,4.0425,4.054,4.0547,4.0554,4.0603,4.0617,4.0629,0,0,0,0,0,0,4.0131,4.016,4.0148,4.023,4.0258,4.0283,4.0325,4.0311,4.0347,4.0341,4.0335,4.0342,4.0413,4.0426,4.0385,4.051,4.0466,4.0476,4.0499,4.0513,4.0523,4.0519,4.0341,0,0,0,0,0,4.0151,4.0197,4.022,4.0289,4.0304,4.0313,4.0338,4.0334,4.0362,4.0373,4.0389,4.0416,4.0458,4.0486,4.0526,4.061,4.0615,4.0648,4.0658,4.0667,4.0676,4.0721,4.0735,4.0579,4.0579,4.0579,0,0,4.0191,4.0212,4.0242,4.0299,4.032,4.0368,4.0323,4.0375,4.041,4.0381,4.0447,4.0459,4.0489,4.0566,4.06,4.0579,4.072,4.0676,4.0683,4.0687,4.0729,4.0744,4.0757,4.0584,4.0583,4.0582,0,0,4.0289,4.031,4.0371,4.0393,4.0426,4.0431,4.0446,4.0474,4.0482,4.0548,4.0527,4.0568,4.0641,4.0663,4.0684,4.0791,4.0772,4.0804,4.086,4.0904,4.0917,4.0927,4.0965,4.0979,4.0813,4.0813,4.0813,0,4.0334,4.0407,4.0403,4.0458,4.0483,4.046,4.052,4.0542,4.0586,4.0603,4.0579,4.067,4.0689,4.077,4.0796,4.0814,4.083,4.0801,4.0915,4.0926,4.0936,4.0972,4.0986,4.0816,4.0816,4.0816,4.0815,0,4.0461,4.0511,4.0556,4.06,4.063,4.0688,4.0692,4.0723,4.0715,4.0723,4.079,4.0812,4.0856,4.0875,4.0868,4.0955,4.0941,4.0916,4.0872,4.0955,4.0988,4.1002,4.0821,4.082,4.0819,4.0818,0,0,4.0588,4.0631,4.0647,4.0667,4.0702,4.074,4.0796,4.084,4.0866,4.0897,4.0943,4.1006,4.0984,4.1007,4.1002,4.1041,4.1124,4.1011,4.1012,4.1031,4.1221,4.1239,4.1256,4.1112,4.1115,4.1117,4.1219,0,4.0688,4.0787,4.0786,4.0877,4.0923,4.0902,4.095,4.0976,4.0985,4.1024,4.1033,4.1077,4.1044,4.1058,4.1096,4.1106,4.1162,4.1099,4.1154,4.1156,4.1147,4.1273,4.1293,4.1388,4.1232,4.1234,4.1236,0,4.0818,4.0855,4.0951,4.098,4.0999,4.1043,4.1083,4.1121,4.115,4.1153,4.118,4.1169,4.1225,4.1179,4.1255,4.1212,4.1235,4.1243,4.1247,4.1251,4.12,4.1281,4.1418,4.1432,4.1256,4.1255,4.1253,0,4.0901,4.0975,4.1042,4.1059,4.1094,4.1125,4.1141,4.1168,4.1194,4.1229,4.1246,4.1286,4.1308,4.1339,4.1339,4.1306,4.1416,4.137,4.1419,4.142,4.1443,4.1442,4.1586,4.1458,4.1458,4.1458,4.1457,0,4.1013,4.1073,4.108,4.1121,4.1186,4.1184,4.1249,4.1261,4.1285,4.1327,4.1311,4.1351,4.1349,4.1389,4.1389,4.1452,4.1462,4.1465,4.1465,4.1467,4.1466,4.1481,4.1474,4.1462,4.1461,4.146,4.1459,0,4.1117,4.1124,4.1196,4.1223,4.1232,4.1279,4.1302,4.134,4.1347,4.1401,4.1414,4.1425,4.1471,4.1474,4.1528,4.1528,4.1604,4.1596,4.1594,4.1593,4.1642,4.1637,4.18,4.1821,4.168,4.1681,4.1683,0,4.1188,4.1233,4.1266,4.1294,4.1312,4.1357,4.1384,4.1383,4.1412,4.1449,4.1483,4.1528,4.1564,4.1639,4.1651,4.1691,4.1684,4.1739,4.169,4.1691,4.1685,4.1682,4.1686,4.1748,4.1749,4.1751,4.1752,0,4.1312,4.1314,4.1355,4.1397,4.143,4.1463,4.1494,4.1517,4.152,4.1553,4.1601,4.1629,4.1684,4.1729,4.1769,4.1783,4.1768,4.1767,4.178,4.1783,4.178,4.1782,4.162,4.1763,4.1762,4.1761,4.176,4.176,4.1402,4.1441,4.1471,4.1516,4.154,4.1569,4.1607,4.1619,4.1659,4.1705,4.1701,4.1755,4.1782,4.1834,4.1852,4.1893,4.1874,4.1893,4.1898,4.1903,4.1908,4.1774,4.19,4.1899,4.1899,4.1899,4.1899,0,4.1525,4.1543,4.1586,4.163,4.1666,4.1649,4.1682,4.1713,4.176,4.1788,4.1824,4.1879,4.1922,4.1938,4.198,4.201,4.2003,4.2021,4.2018,4.2022,4.1923,4.1907,4.2025,4.2025,4.2025,4.2025,4.2025,4.2025,4.1594,4.166,4.1665,4.1742,4.1759,4.1812,4.1832,4.1858,4.188,4.1943,4.1979,4.199,4.2012,4.2056,4.2095,4.2098,4.2114,4.2134,4.2135,4.2041,4.2029,4.2017,4.2002,4.2138,4.2138,4.223,4.2231,4.2232]}]]